This is the latest recevied weather packets stored in our database for station/object EA3IK-1. If no packets are shown the sender has not sent any weather packets the latest 10 day(s).
| Time | Temp. | Humidity | Pressure | Rain* | Wind** | Luminosity | Snow |
|---|---|---|---|---|---|---|---|
| 1777627547 | 20° C | 66% | 1021.3 hPa | 0 mm | - | - | - |
| 1777626647 | 19.44° C | 66% | 1021.4 hPa | 0 mm | - | - | - |
| 1777625746 | 19.44° C | 65% | 1021.3 hPa | 0 mm | - | - | - |
| 1777624845 | 19.44° C | 62% | 1021.3 hPa | 0 mm | - | - | - |
| 1777623944 | 18.33° C | 60% | 1021.2 hPa | 0 mm | - | - | - |
| 1777623043 | 17.22° C | 57% | 1021.1 hPa | 0 mm | - | - | - |
| 1777622142 | 17.78° C | 55% | 1020.9 hPa | 0 mm | - | - | - |
| 1777621241 | 16.67° C | 53% | 1020.9 hPa | 0 mm | - | - | - |
| 1777620341 | 16.11° C | 51% | 1020.8 hPa | 0 mm | - | - | - |
| 1777619440 | 15.56° C | 51% | 1020.8 hPa | 0 mm | - | - | - |
| 1777618539 | 16.11° C | 52% | 1020.7 hPa | 0 mm | - | - | - |
| 1777617638 | 16.11° C | 51% | 1020.7 hPa | 0 mm | - | - | - |
| 1777616737 | 15.56° C | 50% | 1020.5 hPa | 0 mm | - | - | - |
| 1777615836 | 15.56° C | 47% | 1020.5 hPa | 0 mm | - | - | - |
| 1777614936 | 15° C | 45% | 1020.3 hPa | 0 mm | - | - | - |
| 1777614035 | 14.44° C | 43% | 1020.3 hPa | 0 mm | - | - | - |
| 1777613134 | 13.89° C | 42% | 1020.2 hPa | 0 mm | - | - | - |
| 1777612233 | 13.89° C | 43% | 1020 hPa | 0 mm | - | - | - |
| 1777611332 | 13.89° C | 44% | 1019.9 hPa | 0 mm | - | - | - |
| 1777610431 | 14.44° C | 44% | 1019.8 hPa | 0 mm | - | - | - |
| 1777609530 | 14.44° C | 45% | 1019.8 hPa | 0 mm | - | - | - |
| 1777608629 | 14.44° C | 44% | 1019.8 hPa | 0 mm | - | - | - |
| 1777607729 | 14.44° C | 44% | 1019.8 hPa | 0 mm | - | - | - |
| 1777606828 | 14.44° C | 43% | 1019.8 hPa | 0 mm | - | - | - |
| 1777605927 | 14.44° C | 46% | 1019.7 hPa | 0 mm | - | - | - |
* Rain latest hour (hover to see other rain measurements)
** Current wind speed in m/s (hover to see current wind gust speed)